Location: Carrières
(48.9495°N, 2.0407°E)
Time: 18:38:39
(UTC+00:00)

Altair - Pass Details

Date: 24 April 2024
Orbit: 1502 x 1682 km, 47.2° (Epoch: 21 May)

Event Time Altitude Azimuth Distance (km) Brightness Sun altitude
Rises 21:56:33 0° 281° (W) 4,892 10.7 -22.9°
Reaches altitude 10° 21:59:44 10° 280° (W) 3,884 10.1 -23.2°
Maximum altitude 22:09:33 70° 199° (SSW) 1,684 7.5 -24.0°
Enters shadow 22:14:09 35° 127° (SE) 2,344 8.0 -24.3°
